STARLINK-30585, 58063

Orbit data source: Space-Track

STARLINK-30585, 58063 is a payload satellite owned by SpaceX/Seattle (US) in LEO that was launched on Fri, 13 Oct 2023 UTC via an FALCON 9 launch vehicle from the Air Force Eastern Test Range (AFETR). Payload-class satellites include a variety of spacecraft equipped with specific instruments for various scientific and technological missions. These include communications satellites like Starlink; space stations such as the ISS; scientific satellites like the Hubble; Earth observation satellites from companies like Planet Labs, Umbra, and HawkEye 360; GPS; miniature CubeSats for education and research; and military/defense satellites.

Loading next visibility...
Identifier
58063, 2023-158N
Orbit
LEO
Country
Flag of USUS
Related business
Manufacturer
SpaceX/Seattle
Mission
Operational Commercial Communications
Bus & Motor
STARLINK V2M, Unknown motor
Mass
730 kg wet, ~700 kg dry
Launch date (UTC)
2023-10-13 (3 years ago)
Launch vehicle
FALCON 9
Launch site
Air Force Eastern Test Range (AFETR)
Object type
Payload
Rocket body
Debris
Shape & HBR
Box + 2 Pan, 17.7 m
Radar Cross Section
33.884 m², Large (>1 m²)

Expand to show TLE details & history
Last TLE update: 2 days ago

TLE from 2 days ago
0 STARLINK-30585
1 58063U 23158N   26171.04882698 -.00000323  00000-0 -21988-5 0  9996
2 58063  43.0038 169.0532 0001769 275.5851  84.4799 15.27575618149220
Epoch: 2026-06-20T01:10Z
TLE epoch observation values (Epoch: 2026-06-20T01:10:18.651Z)
Latitude
Longitude
-116.79355°
Altitude
482.722 km
Speed
7.626 km/s
True Right ascension
11h 16m 12s
True Declination
0° 00' 00"
Sunlit
Object was in daylight at epoch
Visualization orbit readout
Latitude
Unknown
Longitude
Unknown
Altitude
Unknown
Speed
Unknown
Apparent Right ascension
Unknown
Apparent Declination
Unknown
Sunlit
N/A
Visualization observer readout
Local Sidereal Time
21:29:16
Azimuth
Unknown
Elevation
Unknown
Doppler factor
Unknown
Orbital elements
Apogee altitude
486.221 km
Perigee altitude
483.793 km
Semi-major axis
6,863.144 km
Eccentricity
0.00018
Inclination
43.0038°
RAAN
169.0532°
Arg. of periapsis
275.5851°
True anomaly
84.50008°
Mean anomaly
84.4799°
Eccentric anomaly
84.48999°
Mean motion
3.81732 °/min
Orbital period
94.31 mins
BSTAR
-0.0000021988
Loading maneuver chart data...
Computing Atmospheric mass density...
Loading historical data...
Loading historical data...
Loading historical data...
Loading historical data...
Loading historical data...
Loading historical data...
Loading historical data...

Documentation

Showing up to 5 results
|